{"data":{"norad_id":65783,"epoch":"2026-09-20T06:37:17.766912Z","epoch_age_seconds":166111,"freshness":"FRESH","line1":"1 65783U 25217X   26263.27590008  .00001763  00000+0  26017-3 0  9991","line2":"2 65783  51.8993 257.6069 0000617  61.9124 298.1901 14.79933098 53762","mean_motion":14.79933098,"eccentricity":6.17e-5,"inclination_deg":51.8993,"raan_deg":257.6069,"arg_perigee_deg":61.9124,"mean_anomaly_deg":298.1901,"bstar":0.00026017,"rev_number":5376,"period_min":97.301695728411,"perigee_km":629.10294643116,"apogee_km":629.96769319543,"semimajor_km":7007.6723198133,"source":"CELESTRAK","updated_at":"2026-09-21T09:00:15.561937Z"}}